Location: Breitenfeld
(46.8500°N, 15.6333°E)
Time: 13:36:05
(UTC+00:00)

Aureole 1 Rocket - Visible Passes

Search period start: 06 August 2020 00:00
Search period end: 16 August 2020 00:00
Orbit: 377 x 1380 km, 73.9° (Epoch: 06 August)

Date Brightness Start Highest point End Pass type
(mag) Time Alt. Az. Time Alt. Az. Time Alt. Az.
06 Aug 7.4 02:59:01 10° N 03:01:32 11° NNE 03:04:03 10° NE visible
06 Aug 4.9 19:43:48 12° SSE 19:49:10 37° E 19:56:18 10° NNE visible
06 Aug 5.0 21:26:54 10° SW 21:33:27 54° WNW 21:41:29 10° NNE visible
06 Aug 6.7 23:15:27 10° WNW 23:20:17 18° NW 23:25:32 10° N visible
07 Aug 7.4 02:55:11 10° N 02:58:12 12° NNE 03:01:10 10° NE visible
07 Aug 4.8 19:39:18 10° SSE 19:45:25 42° E 19:52:49 10° NNE visible
07 Aug 5.2 21:23:17 10° SW 21:29:54 50° WNW 21:37:53 10° NNE visible
07 Aug 6.8 23:12:12 10° WNW 23:16:52 17° NNW 23:21:53 10° N visible
08 Aug 7.4 02:51:25 10° N 02:54:51 13° NNE 02:58:14 10° NE visible
08 Aug 4.6 19:35:21 10° S 19:41:40 47° E 19:49:20 10° NNE visible
08 Aug 5.4 21:19:42 10° SW 21:26:22 46° NW 21:34:18 10° NNE visible
08 Aug 6.9 23:08:59 10° WNW 23:13:28 16° NNW 23:18:14 10° N visible
09 Aug 7.4 02:47:40 10° N 02:51:29 13° NNE 02:55:14 10° NE visible
09 Aug 4.6 19:31:27 10° S 19:37:57 52° ESE 19:45:50 10° NNE visible
09 Aug 5.6 21:16:09 10° SW 21:22:50 42° NW 21:30:41 10° NNE visible
09 Aug 7.0 23:05:49 10° WNW 23:10:04 15° NNW 23:14:34 10° N visible
10 Aug 7.4 02:43:57 10° N 02:48:07 14° NNE 02:52:11 10° ENE visible
10 Aug 4.5 19:27:34 10° S 19:34:14 58° ESE 19:42:19 10° NNE visible
10 Aug 5.8 21:12:37 10° WSW 21:19:18 39° NW 21:27:04 10° NNE visible
10 Aug 7.1 23:02:41 10° WNW 23:06:41 14° NNW 23:10:53 10° N visible
11 Aug 7.3 02:40:15 10° N 02:44:45 15° NNE 02:49:05 10° ENE visible
11 Aug 4.5 19:23:43 10° S 19:30:33 65° ESE 19:38:46 10° NNE visible
11 Aug 6.0 21:09:06 10° WSW 21:15:47 36° NW 21:23:27 10° NNE visible
11 Aug 7.2 22:59:34 10° NW 23:03:19 14° NNW 23:07:11 10° N visible
12 Aug 7.3 02:36:33 10° N 02:41:21 16° NNE 02:45:58 10° ENE visible
12 Aug 4.5 19:19:54 10° S 19:26:52 71° ESE 19:35:13 10° NNE visible
12 Aug 6.1 21:05:37 10° WSW 21:12:17 34° NW 21:19:49 10° NNE visible
12 Aug 7.3 22:56:29 10° NW 22:59:56 13° NNW 23:03:29 10° N visible
13 Aug 7.3 02:32:52 10° N 02:37:58 17° NNE 02:42:47 10° ENE visible
13 Aug 4.5 19:16:06 10° SSW 19:23:12 78° ESE 19:31:39 10° NNE visible
13 Aug 6.3 21:02:11 10° WSW 21:08:48 31° NW 21:16:11 10° NNE visible
13 Aug 7.4 22:53:27 10° NW 22:56:34 12° NNW 22:59:45 10° N visible
14 Aug 7.3 02:29:12 10° N 02:34:33 18° NNE 02:39:34 10° ENE visible
14 Aug 4.5 19:12:20 10° SSW 19:19:33 85° ESE 19:28:05 10° NNE visible
14 Aug 6.4 20:58:45 10° WSW 21:05:18 29° NW 21:12:32 10° N visible
14 Aug 7.4 22:50:29 10° NW 22:53:13 12° NNW 22:55:58 10° N visible
15 Aug 7.3 02:25:32 10° N 02:31:08 19° NE 02:36:19 10° ENE visible
15 Aug 4.6 19:08:35 10° SSW 19:15:55 88° WNW 19:24:30 10° NNE visible
15 Aug 6.6 20:55:22 10° W 21:01:50 27° NW 21:08:53 10° N visible
15 Aug 7.5 22:47:35 10° NW 22:49:51 11° NNW 22:52:09 10° N visible
